Date String (YYYY-MM-DD hh:mm:ss) UTC,Instrument flags,Ambient pressure (hPa),Sample flow (lpm),Bypass flow (lpm),Sample temperature (°C),Ambient temperature (°C),ASC tube jacket temperature (°C),LED temperature (°C),Box temperature (°C),Sample RH (%),Span deviation,Mass concentration (μg/m³),Mass concentration (μg/m³),Mass concentration (μg/m³)
DateTimeUTC,F1_M11,P_M11,Q1_M11,Q2_M11,T1_M11,T2_M11,T3_M11,T4_M11,T5_M11,U1_M11,ZSPAN_M11,X2_M11,X0_M11,X1_M11
2022-03-30 05:00:00,,0817.6,4.99,0.00,25.2,23.9,00.0,34.3,26.9,16.1,0000.0,0000.96,0001.57,0000.79
2022-03-30 05:01:00,,0817.7,4.99,0.00,25.1,23.9,00.0,34.3,26.9,16.1,0000.0,0000.98,0001.83,0000.81
2022-03-30 05:02:00,,0817.7,4.99,0.00,25.1,23.9,00.0,34.3,26.9,16.1,0000.0,0001.00,0002.37,0000.83
2022-03-30 05:03:00,,0817.7,5.01,0.00,25.1,23.9,00.0,34.2,26.9,16.1,0000.0,0000.99,0002.24,0000.84
2022-03-30 05:04:00,,0817.8,5.02,0.00,25.1,23.9,00.0,34.2,26.9,16.2,0000.0,0001.02,0002.37,0000.85
2022-03-30 05:05:00,,0817.7,5.00,0.00,25.1,23.9,00.0,34.2,26.9,16.0,0000.0,0001.02,0002.39,0000.86
2022-03-30 05:06:00,,0817.7,4.99,0.00,25.1,23.9,00.0,34.2,26.9,16.0,0000.0,0001.06,0002.46,0000.88
2022-03-30 05:07:00,,0817.7,5.00,0.00,25.1,23.9,00.0,34.2,26.8,16.0,0000.0,0001.08,0002.60,0000.89
2022-03-30 05:08:00,,0817.7,5.00,0.00,25.0,23.9,00.0,34.2,26.8,16.0,0000.0,0001.09,0002.67,0000.90
2022-03-30 05:09:00,,0817.8,5.00,0.00,25.0,24.0,00.0,34.1,26.7,16.0,0000.0,0001.13,0002.70,0000.92
2022-03-30 05:10:00,,0817.9,4.99,0.00,25.0,24.0,00.0,34.1,26.7,16.2,0000.0,0001.14,0002.70,0000.93
2022-03-30 05:11:00,,0817.9,4.99,0.00,25.0,24.0,00.0,34.1,26.8,16.4,0000.0,0001.13,0002.95,0000.94
2022-03-30 05:12:00,,0817.9,5.00,0.00,25.0,24.0,00.0,34.1,26.8,16.2,0000.0,0001.12,0002.62,0000.95
2022-03-30 05:13:00,,0817.9,5.01,0.00,25.0,24.1,00.0,34.1,26.8,16.1,0000.0,0001.15,0002.37,0000.96
2022-03-30 05:14:00,,0817.9,4.99,0.00,25.0,24.1,00.0,34.1,26.8,16.2,0000.0,0001.18,0002.40,0000.98
2022-03-30 05:15:00,,0818.0,4.99,0.00,25.0,24.1,00.0,34.1,26.8,16.4,0000.0,0001.22,0002.46,0001.00
2022-03-30 05:16:00,,0818.0,5.00,0.00,25.1,24.1,00.0,34.1,26.8,16.3,0000.0,0001.27,0002.55,0001.03
2022-03-30 05:17:00,,0818.0,5.01,0.00,25.1,24.2,00.0,34.1,26.8,16.3,0000.0,0001.28,0002.56,0001.04
2022-03-30 05:18:00,,0818.0,5.00,0.00,25.1,24.1,00.0,34.1,26.8,16.3,0000.0,0001.29,0002.51,0001.06
2022-03-30 05:19:00,,0818.0,5.00,0.00,25.0,24.1,00.0,34.1,26.8,15.6,0000.0,0001.31,0002.48,0001.07
2022-03-30 05:20:00,,0818.0,4.99,0.00,25.0,24.1,00.0,34.1,26.9,15.0,0000.0,0001.29,0002.43,0001.07
2022-03-30 05:21:00,,0818.0,5.00,0.00,25.1,24.2,00.0,34.1,26.9,14.9,0000.0,0001.29,0002.46,0001.07
2022-03-30 05:22:00,,0818.0,5.00,0.00,25.1,24.2,00.0,34.1,26.9,14.9,0000.0,0001.32,0002.20,0001.08
2022-03-30 05:23:00,,0818.0,5.01,0.00,25.1,24.2,00.0,34.1,26.9,15.0,0000.0,0001.37,0002.29,0001.09
2022-03-30 05:24:00,,0818.0,5.00,0.00,25.1,24.2,00.0,34.1,26.9,15.0,0000.0,0001.34,0002.08,0001.08
2022-03-30 05:25:00,,0818.1,5.00,0.00,25.1,24.2,00.0,34.1,27.0,15.0,0000.0,0001.34,0002.07,0001.08
2022-03-30 05:26:00,,0818.2,4.99,0.00,25.1,24.2,00.0,34.1,27.0,15.1,0000.0,0001.30,0001.94,0001.07
2022-03-30 05:27:00,,0818.2,5.00,0.00,25.1,24.2,00.0,34.1,27.0,15.1,0000.0,0001.28,0001.88,0001.04
2022-03-30 05:28:00,,0818.2,5.00,0.00,25.1,24.3,00.0,34.1,27.0,15.0,0000.0,0001.26,0001.84,0001.03
2022-03-30 05:29:00,,0818.2,5.00,0.00,25.1,24.3,00.0,34.1,27.0,15.1,0000.0,0001.25,0001.86,0001.01
2022-03-30 05:30:00,,0818.2,5.00,0.00,25.1,24.3,00.0,34.1,27.0,15.1,0000.0,0001.24,0001.80,0001.01
2022-03-30 05:31:00,,0818.3,5.00,0.00,25.2,24.3,00.0,34.1,27.0,15.0,0000.0,0001.26,0001.86,0001.02
2022-03-30 05:32:00,,0818.3,5.00,0.00,25.2,24.3,00.0,34.1,27.0,15.0,0000.0,0001.25,0002.04,0001.03
2022-03-30 05:33:00,,0818.3,5.00,0.00,25.2,24.3,00.0,34.1,27.0,15.1,0000.0,0001.24,0002.34,0001.02
2022-03-30 05:34:00,,0818.4,4.99,0.00,25.2,24.3,00.0,34.1,27.0,15.1,0000.0,0001.20,0002.26,0001.02
2022-03-30 05:35:00,,0818.4,5.00,0.00,25.2,24.3,00.0,34.1,27.0,14.9,0000.0,0001.20,0002.24,0001.03
2022-03-30 05:36:00,,0818.4,5.02,0.00,25.2,24.3,00.0,34.1,27.0,14.7,0000.0,0001.19,0002.22,0001.04
2022-03-30 05:37:00,,0818.3,5.00,0.00,25.2,24.3,00.0,34.1,27.1,14.8,0000.0,0001.21,0002.21,0001.05
2022-03-30 05:38:00,,0818.3,5.00,0.00,25.2,24.3,00.0,34.1,27.0,14.6,0000.0,0001.22,0002.25,0001.06
2022-03-30 05:39:00,,0818.3,4.99,0.00,25.2,24.3,00.0,34.1,27.0,14.6,0000.0,0001.24,0002.26,0001.07
2022-03-30 05:40:00,,0818.3,5.00,0.00,25.2,24.3,00.0,34.2,27.0,14.6,0000.0,0001.24,0002.20,0001.09
2022-03-30 05:41:00,,0818.2,5.01,0.00,25.2,24.2,00.0,34.2,27.0,14.7,0000.0,0001.31,0002.31,0001.10
2022-03-30 05:42:00,,0818.3,4.99,0.00,25.2,24.2,00.0,34.2,27.0,14.6,0000.0,0001.34,0002.40,0001.10
2022-03-30 05:43:00,,0818.3,4.99,0.00,25.2,24.2,00.0,34.2,27.0,14.5,0000.0,0001.36,0002.38,0001.11
2022-03-30 05:44:00,,0818.3,5.01,0.00,25.1,24.2,00.0,34.2,26.9,14.5,0000.0,0001.38,0002.00,0001.13
2022-03-30 05:45:00,,0818.3,5.01,0.00,25.1,24.1,00.0,34.1,26.9,14.5,0000.0,0001.42,0002.06,0001.14
2022-03-30 05:46:00,,0818.4,4.99,0.00,25.1,24.1,00.0,34.1,26.9,14.5,0000.0,0001.45,0002.14,0001.15
2022-03-30 05:47:00,,0818.4,5.00,0.00,25.1,24.1,00.0,34.1,26.9,14.5,0000.0,0001.46,0002.16,0001.16
2022-03-30 05:48:00,,0818.4,4.99,0.00,25.1,24.1,00.0,34.1,26.9,14.5,0000.0,0001.47,0002.22,0001.17
2022-03-30 05:49:00,,0818.3,5.01,0.00,25.1,24.1,00.0,34.1,26.9,14.5,0000.0,0001.46,0002.22,0001.17
2022-03-30 05:50:00,,0818.4,5.00,0.00,25.1,24.1,00.0,34.1,26.9,14.4,0000.0,0001.45,0002.24,0001.17
2022-03-30 05:51:00,,0818.4,4.99,0.00,25.1,24.2,00.0,34.1,26.9,14.5,0000.0,0001.45,0002.27,0001.17
2022-03-30 05:52:00,,0818.4,5.00,0.00,25.1,24.2,00.0,34.1,26.9,14.5,0000.0,0001.41,0002.17,0001.17
2022-03-30 05:53:00,,0818.4,4.99,0.00,25.1,24.2,00.0,34.1,26.9,14.5,0000.0,0001.38,0002.03,0001.17
2022-03-30 05:54:00,,0818.4,5.01,0.00,25.1,24.2,00.0,34.1,26.9,14.5,0000.0,0001.37,0001.88,0001.17
2022-03-30 05:55:00,,0818.4,4.99,0.00,25.1,24.2,00.0,34.1,26.9,14.5,0000.0,0001.39,0001.93,0001.18
2022-03-30 05:56:00,,0818.4,4.99,0.00,25.1,24.1,00.0,34.1,26.9,14.4,0000.0,0001.38,0001.92,0001.19
2022-03-30 05:57:00,,0818.4,4.99,0.00,25.1,24.1,00.0,34.1,26.9,14.4,0000.0,0001.35,0001.85,0001.19
2022-03-30 05:58:00,,0818.4,5.01,0.00,25.1,24.1,00.0,34.1,26.9,14.4,0000.0,0001.36,0001.87,0001.19
2022-03-30 05:59:00,,0818.4,5.00,0.00,25.1,24.1,00.0,34.1,26.9,14.4,0000.0,0001.35,0001.80,0001.19
